Regional Weather Roundup
Issued by NWS

Home | Current Version | Previous Version | Text Only | Print | Product List | Glossary On
Versions: 1 2 3 4 5 6 7 8 9 10 11 12 13 14 15 16 17 18 19 20 21 22 23 24 25 26 27
000
ASUS43 KDMX 250207
RWRIA

WEATHER ROUNDUP FOR IOWA
NATIONAL WEATHER SERVICE DES MOINES IA
900 PM CDT FRI OCT 24 2014

NOTE: "FAIR" INDICATES FEW OR NO CLOUDS BELOW 12,000 FEET WITH NO
SIGNIFICANT WEATHER AND/OR OBSTRUCTIONS TO VISIBILITY.

* - THESE STATIONS ARE NOT NWS STATIONS...THUS NOT UNDER NWS
QUALITY CONTROL.  THEY ALSO DO NOT REPORT WEATHER SUCH
AS PRECIPITATION OR FOG.

IAZ001>003-012>014-020>022-031>034-043>046-250300-
   NORTHWEST IOWA

CITY           SKY/WX    TMP DP  RH WIND       PRES   REMARKS
CARROLL *      MOCLDY    54  52  94 W7        29.95S
CHEROKEE *     PTCLDY    53  49  86 CALM      29.96R
DENISON *      PTCLDY    55  52  88 CALM      29.95R
LE MARS *      PTCLDY    52  45  76 CALM      29.97R
ORANGE CITY *  PTCLDY    63  43  48 NW3       29.97R
SHELDON *      CLEAR     50  45  81 CALM      29.95R
SIOUX CITY     CLEAR     52  46  80 CALM      29.97R
SPENCER        CLEAR     51  44  77 SW5       29.94S
STORM LAKE *   MOCLDY    61  48  63 W9        29.97R
$$

IAZ055>058-069>071-079>083-090>094-250300-
   SOUTHWEST IOWA

CITY           SKY/WX    TMP DP  RH WIND       PRES   REMARKS
ATLANTIC *     PTCLDY    55  54  94 CALM      29.96R FOG
AUDUBON *      PTCLDY    54  46  76 CALM      29.98R
CLARINDA *     FOG       55  55 100 CALM      29.97S VSB 3/4
COUNCIL BLFS * CLEAR     64  59  82 NW6       29.96R
CRESTON *      CLEAR     63  61  94 NW5       29.97R
HARLAN  *      PTCLDY    55  55 100 CALM      30.00S
LAMONI         CLEAR     63  61  93 S3        29.95S
RED OAK *      CLEAR     55  55 100 CALM      29.97R
SHENANDOAH *     N/A     59  59 100 CALM      29.97R FOG
$$

IAZ047>049-059>061-072>074-084-250300-
   CENTRAL IOWA

CITY           SKY/WX    TMP DP  RH WIND       PRES   REMARKS
AMES           FOG       55  54  96 CALM      29.94R VSB 1/4
ANKENY *       FOG       55  55 100 CALM      29.94S VSB<1/4
CHARITON *     FOG       57  57 100 S5        29.95S VSB<1/4
DES MOINES     MOCLDY    59  57  93 S5        29.94R FOG
GRINNELL*        N/A     57  56  96 S5        29.95S FOG
KNOXVILLE *    FOG       59  57  94 S5        29.94S VSB<1/4
MARSHALLTOWN   PTCLDY    57  56  96 S6        29.93R FOG
PELLA *          N/A     59  59  99 S3        29.96R FOG
PERRY *          N/A     59  57  93 W7        29.94S
$$

IAZ004>006-015-016-023>025-035-036-250300-
   NORTH CENTRAL IOWA

CITY           SKY/WX    TMP DP  RH WIND       PRES   REMARKS
ALGONA *       PTCLDY    57  52  82 W6        29.93S
CLARION *      MOCLDY    52  52 100 S5        29.93S
ESTHERVILLE    PTCLDY    51  38  60 W6        29.92S
FORT DODGE *   PTCLDY    54  48  82 CALM      29.94S
MASON CITY     MOCLDY    50  50 100 W3        29.93R
FOREST CITY *    N/A     50  50 100 CALM      29.92S FOG
IOWA FALLS *   FOG       56  55  97 SW6       29.94S VSB 1/4
$$

IAZ007>011-017>019-026>030-037>042-050>054-066-250300-
   NORTHEAST IOWA

CITY           SKY/WX    TMP DP  RH WIND       PRES   REMARKS
CEDAR RAPIDS   CLOUDY    56  56 100 S6        29.94S FOG
CHARLES CITY * FOG       57  57 100 SW6       29.92S VSB<1/4
CLINTON *      CLOUDY    61  55  82 W7        29.97S
DECORAH *      CLOUDY    59  57  94 CALM      29.92R
DUBUQUE        CLOUDY    58  55  90 SW6       29.93S
MONTICELLO *   CLOUDY    59  59 100 SW6       29.93F
OELWEIN *      CLOUDY    59  59 100 SW8       29.94R FOG
WATERLOO       FOG       55  55 100 S6        29.92S VSB 1/4
$$

IAZ064-065-067-068-078-250300-
   EAST CENTRAL IOWA

CITY           SKY/WX    TMP DP  RH WIND       PRES   REMARKS
DAVENPORT      CLOUDY    57  55  93 W6        29.96S FOG
IOWA CITY      FOG       54  54 100 CALM      29.96S VSB 1/4
MT. PLEASANT * MOCLDY    57  57 100 CALM      29.96S FOG
MUSCATINE *    CLOUDY    59  57  94 NE3       29.96S FOG
QUAD CITIES    CLOUDY    60  56  86 W6        29.95R FOG
$$

IAZ062-063-075>077-085>089-095>099-250300-
   SOUTHEAST IOWA

CITY           SKY/WX    TMP DP  RH WIND       PRES   REMARKS
BURLINGTON     CLOUDY    62  58  86 CALM      29.96R
FAIRFIELD *      N/A     59  57  94 S3        29.95S
FORT MADISON * CLOUDY    59  59 100 N3        29.97R FOG
KEOKUK *       CLOUDY    63  59  88 CALM      29.95R
OSKALOOSA *      N/A     59  57  95 CALM      29.95R FOG
CENTERVILLE *  FOG       52  52 100 CALM      29.98R VSB 1/2
OTTUMWA        PTCLDY    60  58  92 S6        29.94S FOG
WASHINGTON *   FOG       55  55 100 CALM      29.95S VSB<1/4
$$

ABBREVIATIONS USED IN REMARKS
   TC - TEMPERATURES IN CELSIUS
  WCI - WIND CHILL INDEX
   HX - HEAT INDEX
  VSB - VISIBILITY
$$




USA.gov is the U.S. government's official web portal to all federal, state and local government web resources and services.